Notices

What's New in latest Release from April 7th, 2021:

- Updated Glossary, including Speed of Maximum Gust, and Total Hourly Precipitation

- Updated national and regional climate services offices contacts and prices information

- Addition of station inventory lists for 1981-2010, 1971-2000, and 1961-1990 Normals.

If you haven't already, please take our survey and provide feedback about our website: https://eccc.sondage-survey.ca/f/LanguageSelection.aspx?s=442ca660-fcf1-47c0-95a9-59707d6fd709

Hourly Data Report for June 05, 2021

OTTAWA INTL A
ONTARIO
Current Station Operator: NAVCAN

45°19'00.000" N
75°40'00.000" W
114.90 m
6106001
71628
YOW

Download Data

Hourly Data (June 2021)
Hourly Data Report for June 5, 2021
TIME
LST
Temp Definition
°C
Dew Point Definition
°C
Rel Hum Definition
%
Precip. Amount Definition
mm

Wind Dir Definition
10's deg

Wind Spd Definition
km/h
Visibility Definition
km
Stn Press Definition
kPa
Hmdx Definition


Wind Chill Definition


Weather Definition


00:00 18.0 15.7 86   21 9 24.1 99.45     LegendNANA
01:00 17.2 15.3 88   20 9 24.1 99.41     Clear
02:00 16.9 14.9 88   19 7 24.1 99.37     LegendNANA
03:00 16.1 14.6 91   20 11 24.1 99.33     LegendNANA
04:00 15.8 14.5 92   20 13 24.1 99.31     Mostly Cloudy
05:00 16.4 14.7 89   20 13 24.1 99.29     LegendNANA
06:00 17.4 15.0 86   22 13 24.1 99.28     LegendNANA
07:00 18.4 15.5 83   21 18 24.1 99.28     Mostly Cloudy
08:00 21.6 16.4 72   22 18 24.1 99.30 26   LegendNANA
09:00 23.5 16.7 65   23 19 24.1 99.28 29   LegendNANA
10:00 22.2 17.4 74   27 4 24.1 99.31 28   Thunderstorms,Rain Showers
11:00 22.7 18.4 77   21 13 24.1 99.28 29   LegendNANA
12:00 26.2 18.4 62   20 21 24.1 99.29 33   LegendNANA
13:00 26.7 18.2 59   24 18 24.1 99.32 33   Mostly Cloudy
14:00 28.8 17.0 48   27 18 24.1 99.33 34   LegendNANA
15:00 28.0 15.7 47   27 24 24.1 99.35 32   LegendNANA
16:00 26.6 16.5 53   28 26 24.1 99.45 32   Cloudy
17:00 22.1 18.0 77   30 22 12.9 99.56 28   Rain
18:00 20.8 18.1 84   29 17 16.1 99.57 27   Rain
19:00 19.7 18.2 91   27 4 24.1 99.59     Rain
20:00 19.2 18.4 95   26 8 24.1 99.62     LegendNANA
21:00 19.3 18.4 95   36 1 24.1 99.70     LegendNANA
22:00 19.1 18.4 96   21 8 24.1 99.73     Mostly Cloudy
23:00 19.5 18.7 95   26 3 24.1 99.74     LegendNANA

Notes on Data Quality.

Legend

  • E = Estimated
  • M = Missing
  • NA = Not Available*
  • [empty] = Indicates an unobserved value
Date modified: